Regional Weather Roundup
Issued by NWS

Home | Current Version | Previous Version | Text Only | Print | Product List | Glossary On
Versions: 1 2 3 4 5 6 7 8 9 10 11 12 13 14 15 16 17 18 19 20 21 22 23 24 25 26 27 28 29 30 31 32 33 34 35 36 37 38 39 40 41 42 43 44 45 46 47 48 49 50
000
ASUS44 KJAN 250710
RWRMS

MISSISSIPPI HOURLY WEATHER ROUNDUP
NATIONAL WEATHER SERVICE JACKSON MS
200 AM CDT MON MAY 25 2015

NOTE: "FAIR: INDICATES FEW OR NO CLOUDS BELOW 12,000 FEET WITH NO
SIGNIFICANT WEATHER AND/OR OBSTRUCTIONS TO VISIBILITY.

MSZ001>002-007>008-010>013-018>021-025>028-034>036-250800-
NORTHWEST MISSISSIPPI

CITY           SKY/WX    TMP DP  RH WIND       PRES   REMARKS
CLARKSDALE     CLOUDY    68  68 100 S3        30.03S
CLEVELAND      FAIR      70  70 100 SE10      29.99F
GREENWOOD        N/A    N/A N/A N/A MISG      30.05F
GREENVILLE     CLOUDY    71  69  93 SE15      29.99F
OLIVE BRANCH   MOCLDY    66 N/A N/A S7        30.04F
OXFORD         MOCLDY    66  66 100 S7        30.08S
TUNICA         RAIN      68  68 100 S13       30.03S
$$

MSZ003>006-009-014>017-022>024-029>033-037>039-250800-
NORTHEAST MISSISSIPPI

CITY           SKY/WX    TMP DP  RH WIND       PRES   REMARKS
COLUMBUS AFB   LGT RAIN  72  72 100 SE12      30.07F
CORINTH        CLOUDY    70  68  94 SW5       30.07S
GOLDN TRIANGLE CLOUDY    72  70  94 S10       30.07F
STARKVILLE     FAIR      72  70  94 S9        30.07S
TUPELO         CLOUDY    71  68  90 SW5       30.07S
$$

MSZ040-058-250800-
CENTRAL MISSISSIPPI

CITY           SKY/WX    TMP DP  RH WIND       PRES   REMARKS
JACKSON INTL   CLOUDY    69  67  93 E3        30.05F
JACKSON HAWKNS CLOUDY    69  67  93 E5        30.06F
MERIDIAN KEY   CLOUDY    74  71  91 S9        30.08F
MERIDIAN NAS   CLOUDY    74  71  91 SE5       30.09S
RAYMOND        PTSUNNY   70  64  83 E6        30.04F
VICKSBURG      CLOUDY    70  67  90 SE5       30.01F
$$

MSZ059>079-250800-
SOUTH MISSISSIPPI

CITY           SKY/WX    TMP DP  RH WIND       PRES   REMARKS
BROOKHAVEN     CLOUDY    70  70 100 CALM      30.07S
HATTIESBURG    CLOUDY    73  71  93 CALM      30.07F
MCCOMB         CLOUDY    70  70 100 E3        30.04F
NATCHEZ        CLOUDY    70  66  88 SE7       30.01S
PINE BELT      CLOUDY    73  70  88 SE5       30.08S
$$

MSZ080>082-250800-
COASTAL MISSISSIPPI

CITY           SKY/WX    TMP DP  RH WIND       PRES   REMARKS
BILOXI         CLOUDY    78  74  85 SE13      30.04F
PASCAGOULA     CLOUDY    79  74  84 SE13      30.06F
GULFPORT       CLOUDY    79  71  76 SE15      30.04F
$$



USA.gov is the U.S. government's official web portal to all federal, state and local government web resources and services.